Location: Mauries
(43.6188°N, 0.3322°W)
Time: 19:52:07
(UTC+00:00)

Thor Agena Rocket - Pass Details

Date: 14 January 2026
Orbit: 755 x 802 km, 99.1° (Epoch: 11 February)

Event Time Altitude Azimuth Distance (km) Brightness Sun altitude
Rises 06:13:11 0° 17° (NNE) 3,239 6.8 -14.0°
Reaches altitude 10° 06:15:31 10° 22° (NNE) 2,315 6.1 -13.6°
Maximum altitude 06:20:33 61° 102° (ESE) 880 4.1 -12.7°
Drops below altitude 10° 06:25:37 10° 183° (S) 2,328 6.2 -11.9°
Sets 06:27:58 0° 186° (S) 3,259 6.9 -11.5°
